Theta_e
291 289 287 286 290 292 291 291 293 289 287 287 285 284 285 285 286 287 287 288 288 289 287 289 289 290 291 292 294 289 289 289 290 290 291 291 291 291 291 292 292 291 292 291 291 292 293 294 298 300 302 303 302 302 302 302 302 302 301 300 299 299 299 299 298 297 296 295 295 295 295 292 292 291 291 291 291 291 291 291 292 292 292 292 293 293
291 288 287 291 293 292 292 291 290 287 289 290 287 285 286 284 286 288 290 289 288 289 284 285 287 288 290 292 292 288 288 289 290 290 291 291 291 292 292 292 292 292 289 290 290 291 290 293 298 300 302 302 301 301 302 302 302 302 301 300 299 299 299 300 300 298 296 295 295 294 291 291 291 290 289 288 289 290 290 290 290 291 290 291 291 291
289 288 291 294 291 289 289 289 289 290 288 287 287 285 284 286 285 289 288 289 289 288 287 286 286 288 290 291 291 289 290 291 292 293 294 293 292 292 292 292 292 290 290 290 291 291 291 294 298 300 301 301 301 300 301 302 302 301 301 300 300 300 299 299 298 297 294 293 293 292 290 289 288 289 289 288 289 289 289 289 289 290 290 289 288 289
286 287 293 292 290 291 289 287 288 288 288 286 285 285 286 283 287 284 285 287 290 289 285 284 285 288 290 291 291 293 292 292 292 292 293 294 293 293 293 293 292 291 291 290 290 291 291 294 297 299 300 301 301 300 300 300 301 301 301 300 300 298 297 296 295 293 292 291 291 290 289 289 288 287 288 288 288 287 288 287 288 288 288 288 287 287
290 289 292 293 291 292 290 286 287 286 287 285 287 285 284 286 286 288 286 287 286 289 285 287 287 289 291 291 292 292 291 291 292 290 291 292 293 294 292 292 293 292 292 290 290 290 291 293 296 299 300 302 300 300 299 298 299 299 299 299 297 296 295 294 293 292 291 290 288 288 288 288 287 287 287 286 285 286 286 286 285 285 286 286 285 285
289 291 291 291 289 289 289 286 287 288 285 284 285 289 289 288 288 285 285 288 283 283 284 287 282 280 283 288 291 288 287 289 291 291 292 293 292 292 292 293 292 292 292 292 291 291 291 293 297 299 300 300 300 300 298 296 298 297 296 296 296 295 294 292 291 291 290 289 288 287 287 286 286 284 285 284 284 283 283 283 282 284 284 284 284 284
290 291 292 290 289 288 288 288 286 290 287 285 286 288 290 289 287 286 286 286 280 280 285 286 284 281 283 289 288 286 288 291 291 289 292 293 293 291 292 293 291 291 290 290 291 291 291 293 296 299 300 300 300 300 298 296 296 296 295 295 295 294 293 292 291 291 291 290 290 290 289 288 287 285 283 283 283 283 282 283 283 283 283 283 283 283
289 289 290 288 288 287 286 287 288 291 288 283 285 284 288 287 286 287 285 287 283 281 284 284 282 282 284 289 290 290 289 291 291 292 292 293 292 292 292 292 291 291 291 291 291 291 292 293 296 298 300 300 300 299 296 295 295 295 294 293 293 292 292 291 291 290 291 290 290 288 288 287 286 285 283 283 282 283 283 282 282 282 282 282 283 283
290 287 288 288 287 286 287 288 288 292 288 285 286 286 286 288 286 285 285 283 283 282 281 281 283 283 281 283 284 287 287 289 292 294 295 296 294 292 291 291 290 291 291 291 291 291 291 292 296 299 300 301 299 297 296 294 294 294 294 293 292 291 290 290 290 289 288 289 288 287 286 284 284 284 283 283 284 282 282 282 281 282 281 282 282 282
288 290 291 292 290 288 287 285 289 293 288 287 286 287 285 284 283 281 281 285 282 280 279 283 283 280 285 283 286 283 287 289 292 295 296 297 295 292 291 290 290 290 290 291 291 292 292 292 295 299 300 300 297 296 295 294 293 293 293 292 292 291 290 289 288 288 288 288 288 287 285 284 283 283 283 282 281 281 281 281 281 281 281 281 282 282
290 292 291 290 289 290 288 286 286 292 289 289 287 288 286 282 280 279 280 279 281 277 283 285 283 285 282 282 286 288 288 290 294 294 295 295 291 290 291 290 290 289 290 290 290 291 291 292 294 297 299 298 296 295 294 293 292 292 292 291 290 290 290 289 288 287 287 287 287 286 284 283 283 282 282 281 280 281 281 280 280 280 281 281 281 281
290 289 290 289 290 288 289 288 286 287 288 291 286 282 286 286 279 279 274 276 276 278 282 284 285 285 280 281 285 289 287 286 292 292 294 293 289 289 288 289 289 289 289 289 290 290 290 290 292 296 297 295 294 293 293 292 292 291 291 290 289 289 289 288 288 287 287 286 285 285 284 283 283 282 282 281 280 281 280 280 280 280 280 280 280 280
286 287 286 290 290 292 287 288 287 287 290 288 286 288 283 275 273 274 272 276 274 279 280 279 283 281 283 288 283 285 290 290 288 292 294 293 291 288 287 288 288 289 288 289 289 289 289 290 292 294 295 294 293 292 292 291 291 291 291 290 289 288 288 287 287 286 286 285 284 284 284 283 283 283 282 282 281 281 281 281 280 280 280 279 279 279
283 283 286 289 290 291 292 289 284 284 288 287 288 284 281 274 273 270 266 265 271 276 278 282 283 283 282 286 292 294 295 295 292 290 291 290 291 289 288 288 288 288 288 289 289 289 290 290 292 294 294 294 293 292 291 291 291 291 290 290 289 287 287 287 286 285 284 284 284 284 283 283 283 282 282 282 281 281 281 281 281 280 280 280 280 279
277 279 285 289 288 291 293 294 292 287 288 290 288 290 286 281 272 267 267 275 277 275 276 278 279 278 278 284 286 290 288 287 286 287 287 287 287 287 286 286 286 287 287 288 289 289 290 290 291 293 294 293 293 292 291 291 290 290 289 289 288 286 286 286 285 284 284 283 283 283 283 283 283 282 282 282 282 281 281 281 280 280 280 280 279 279
283 283 282 292 289 292 292 292 289 286 286 286 284 284 281 284 280 280 275 272 271 271 272 275 280 280 284 286 286 284 284 286 288 290 288 290 288 285 285 286 287 287 287 288 288 289 289 290 291 292 293 293 293 292 291 290 290 289 289 288 287 286 285 285 284 283 283 283 283 282 282 282 282 283 282 282 282 281 281 281 280 280 279 279 279 279
282 279 284 288 288 291 293 290 291 290 285 284 286 285 285 284 286 280 275 273 274 271 279 274 281 283 284 288 290 292 286 288 287 287 287 290 290 284 286 286 286 287 287 287 288 289 289 289 290 292 292 292 292 291 291 290 289 289 289 288 286 285 284 284 284 283 283 283 282 282 282 282 282 282 281 281 281 281 280 280 280 280 279 279 279 279
283 281 285 286 287 287 286 287 287 287 288 286 282 285 286 286 286 282 278 271 268 274 277 278 281 282 279 284 281 285 287 289 287 288 289 287 284 284 288 286 286 287 287 287 287 288 289 289 289 290 291 291 292 291 291 290 289 290 289 288 286 284 283 283 283 283 283 283 282 282 282 282 282 282 281 281 281 281 280 279 279 279 279 279 279 279
289 283 284 284 285 287 287 290 290 288 288 287 284 289 289 282 279 280 275 277 269 271 275 275 276 280 284 286 285 285 286 289 290 291 288 289 288 287 288 284 285 285 286 286 286 287 287 288 289 290 290 289 291 291 291 290 289 289 289 288 287 285 284 284 284 283 283 283 283 283 282 282 282 281 281 281 281 281 280 279 279 279 279 279 279 278
288 283 282 285 286 286 287 288 285 285 288 288 289 288 285 284 278 278 283 275 277 271 268 277 275 284 284 285 286 290 288 289 291 290 289 291 291 292 289 285 285 286 286 287 287 287 288 288 288 289 289 288 289 289 290 289 289 289 289 288 287 286 285 284 283 283 283 283 283 283 282 281 281 281 281 281 280 280 280 279 279 279 279 278 278 277
288 286 281 282 285 286 284 286 286 288 286 284 285 284 286 282 284 282 281 278 278 268 268 273 279 284 284 287 287 291 290 290 290 291 291 292 292 290 287 285 286 286 286 287 287 287 287 287 287 287 288 288 287 288 290 289 288 289 288 287 287 285 284 283 283 283 283 283 283 282 281 281 281 280 280 280 280 280 280 279 280 279 279 278 277 277
287 284 283 282 282 283 283 283 287 289 292 290 289 286 288 284 281 279 279 280 275 277 278 271 280 287 285 285 291 288 289 289 289 290 291 291 290 287 284 285 286 286 286 286 287 287 286 286 286 286 286 286 286 287 288 288 287 287 287 287 287 286 285 283 283 283 283 283 283 282 281 281 280 280 280 280 280 279 279 279 279 278 278 277 277 277
290 284 282 279 282 285 285 287 285 285 287 286 287 286 289 289 287 283 279 279 278 281 276 274 271 285 287 286 285 286 288 287 287 287 289 290 288 285 285 285 286 286 287 287 286 286 286 286 286 286 286 286 286 286 286 287 287 287 287 287 286 286 285 284 284 283 283 283 282 281 281 280 280 280 279 279 279 279 279 278 278 278 277 277 276 276
294 288 286 284 283 283 284 284 284 284 287 287 286 282 286 287 288 287 285 283 284 280 281 277 276 286 287 285 283 283 283 282 281 284 289 288 287 286 284 284 285 285 285 285 285 285 285 285 285 285 285 285 285 285 286 286 287 287 287 287 286 285 285 284 284 283 283 282 282 281 280 280 280 279 279 279 278 278 278 277 277 277 277 276 276 276
288 287 288 283 277 279 280 285 285 285 286 282 283 286 289 290 289 284 284 285 283 285 285 283 279 286 284 284 283 283 282 285 285 283 284 287 287 286 284 284 285 285 285 284 285 284 284 284 284 285 285 285 286 286 285 286 286 286 287 287 286 286 285 285 284 283 282 282 281 281 280 279 279 279 279 278 278 278 277 277 277 276 276 276 276 276
290 288 287 282 280 278 277 278 280 282 284 284 283 286 287 288 288 286 285 284 282 286 285 285 285 290 285 286 287 286 283 284 284 283 283 285 287 286 284 284 284 285 285 284 284 284 284 284 284 285 285 286 286 286 285 285 285 286 287 286 286 285 285 284 283 283 282 282 281 280 280 279 279 279 279 278 278 277 277 276 276 276 277 277 276 276
287 288 290 288 286 284 286 283 285 286 284 284 285 287 287 288 290 290 289 286 284 286 284 288 289 290 289 288 286 287 285 286 286 285 287 287 285 284 283 284 284 285 285 284 284 284 284 284 284 284 285 286 286 286 285 285 285 285 286 286 286 285 285 284 283 282 282 281 281 280 280 279 279 279 278 278 277 277 277 276 276 276 276 277 276 276
285 287 288 290 289 290 291 283 286 290 286 287 286 285 288 288 288 288 287 286 289 285 283 289 290 288 291 292 289 287 287 286 287 288 288 286 286 286 285 284 286 284 284 284 284 284 284 284 284 284 284 285 286 286 285 285 285 285 285 285 285 285 284 284 283 282 282 281 281 280 280 280 279 279 278 278 277 277 277 277 276 276 277 277 276 276
287 287 290 289 289 291 292 286 287 288 288 288 288 287 286 288 287 286 287 290 288 287 285 291 289 289 292 294 294 294 291 293 295 296 294 292 288 284 283 283 284 284 284 284 284 284 284 284 284 284 284 285 285 285 285 285 284 284 284 284 284 284 284 283 283 282 281 281 281 281 281 280 279 279 278 277 277 277 277 277 277 277 276 276 276 276
289 287 288 289 288 290 291 287 287 288 286 285 287 288 288 288 287 288 289 290 290 289 291 292 289 289 293 295 292 292 293 295 294 288 286 287 288 286 284 285 285 284 284 284 285 285 285 285 284 284 284 284 285 285 285 285 284 284 284 284 284 284 284 283 282 282 281 281 281 281 280 280 279 278 278 277 277 277 277 277 277 276 276 276 276 275
290 287 290 287 287 288 289 286 286 287 286 286 286 286 288 288 288 289 289 289 290 290 291 291 290 289 295 293 295 293 291 290 288 288 289 289 287 286 286 286 285 285 285 285 285 285 285 284 284 284 284 284 284 285 285 285 285 285 285 284 284 284 284 283 282 282 282 281 281 280 279 279 279 279 278 278 278 278 277 277 276 276 276 276 275 274
289 286 285 287 286 286 288 286 286 284 285 285 286 286 286 286 284 287 286 290 288 287 289 289 288 289 293 290 292 290 289 290 292 292 292 290 287 286 286 287 286 286 286 286 285 285 284 284 284 283 284 284 284 285 285 285 285 284 284 284 284 284 283 283 283 282 282 281 281 280 280 279 279 278 278 278 278 278 277 277 276 275 275 275 274 274
288 287 286 286 285 285 288 286 286 286 285 284 285 288 289 287 288 289 290 290 291 291 287 286 288 294 296 293 292 290 287 290 291 292 293 291 287 287 288 288 289 288 288 287 286 285 285 285 285 284 284 285 285 285 285 285 284 284 284 284 283 283 282 282 282 282 281 281 281 280 280 279 279 278 278 278 278 277 277 276 276 275 275 274 274 273
287 287 287 287 283 285 284 285 286 284 278 281 292 294 293 290 288 286 287 289 290 291 290 294 294 296 295 293 292 293 291 291 294 294 293 294 291 287 286 288 288 289 288 287 287 286 286 286 285 285 285 285 286 286 286 285 285 284 284 283 283 283 282 282 282 282 282 281 281 280 280 279 279 278 278 278 277 277 276 275 275 275 275 274 274 273
287 288 286 287 283 284 284 285 282 277 281 290 287 287 292 295 293 291 291 291 291 292 292 292 293 294 295 295 295 295 295 294 290 290 289 287 287 289 289 288 288 288 287 287 286 286 286 286 285 284 284 284 285 285 285 285 285 284 283 283 283 283 283 283 283 282 282 281 280 280 280 279 278 278 278 277 277 276 276 275 275 275 275 274 274 273
287 287 286 285 285 283 281 283 277 279 287 287 286 284 284 289 291 291 289 291 293 293 292 291 293 295 295 295 295 294 293 289 285 286 286 285 286 289 288 289 288 287 287 287 287 286 286 285 285 285 285 286 285 285 286 285 285 284 283 283 283 283 283 282 282 281 281 281 281 280 279 279 278 278 277 277 276 276 276 275 275 275 274 274 274 274
291 289 288 284 287 281 282 282 283 286 285 286 286 283 287 287 287 288 285 288 293 293 293 291 293 294 294 294 294 294 286 286 287 291 284 286 287 287 288 287 286 286 287 286 287 287 286 286 286 285 285 285 285 285 285 285 285 284 283 282 283 282 282 282 282 282 282 281 281 280 279 279 278 278 277 277 276 276 276 275 275 275 274 274 274 273
292 288 288 286 284 287 283 281 281 281 279 285 290 284 290 290 292 292 290 288 291 291 293 292 291 292 292 293 293 286 285 287 288 292 291 287 285 285 285 285 284 285 285 285 285 284 285 284 284 284 285 284 285 285 285 285 285 284 283 283 283 283 282 282 282 283 282 282 281 281 279 279 278 278 277 276 276 276 276 276 276 275 275 274 274 273
287 289 289 287 285 284 283 280 281 279 283 288 287 286 287 286 290 288 286 285 290 288 291 292 292 293 293 292 289 286 287 286 288 292 286 285 284 285 285 284 284 283 284 285 286 285 284 284 285 284 285 285 284 285 285 285 285 284 283 283 283 283 282 282 283 283 283 282 282 281 280 279 278 278 277 277 277 277 276 276 276 276 274 274 275 274
286 286 286 285 284 285 283 282 279 284 284 284 284 283 282 283 291 289 278 280 289 288 290 291 292 292 292 288 285 286 287 286 289 289 285 286 284 283 284 284 283 283 284 283 284 285 285 284 284 283 283 284 284 285 285 285 285 284 284 283 283 283 283 283 284 284 284 283 282 281 280 279 279 278 278 277 277 277 277 277 276 275 274 274 274 273
283 283 285 282 284 285 285 283 284 284 287 283 283 281 281 285 290 283 279 287 286 285 281 288 290 291 287 284 286 286 288 291 288 285 283 283 284 283 282 282 282 283 283 283 284 285 284 285 285 284 284 285 284 284 285 285 285 284 284 284 283 283 284 285 284 284 284 283 282 281 280 280 279 279 279 278 278 278 276 276 275 274 273 272 271 270
282 283 283 285 283 283 284 282 283 286 288 285 283 286 285 288 280 281 289 284 286 284 280 284 287 285 285 287 286 289 287 282 279 282 283 283 283 281 280 281 281 281 282 283 284 285 285 285 285 285 285 284 284 284 285 285 284 284 284 284 283 284 285 284 284 283 283 282 281 281 280 280 279 279 278 277 276 275 274 273 273 272 271 270 270 270
283 281 279 281 284 284 283 281 281 277 287 287 286 285 286 285 287 289 283 282 282 282 282 281 283 283 284 284 283 282 279 281 281 281 280 280 281 281 281 281 283 283 283 284 284 285 286 285 285 284 284 283 284 284 284 285 284 284 283 283 284 283 283 283 283 282 282 281 281 280 279 279 278 278 277 275 275 274 274 272 271 270 270 269 269 269
287 281 280 283 287 280 281 278 280 287 286 288 290 286 287 289 287 285 287 285 281 281 283 282 282 283 284 285 280 278 278 279 279 279 280 279 280 280 281 282 282 283 283 283 283 283 285 284 282 281 280 281 283 283 284 284 283 283 282 283 282 281 281 281 281 281 281 280 279 278 278 277 277 276 276 275 274 274 273 271 271 269 269 269 269 268
287 284 286 283 287 284 283 286 287 284 287 290 290 287 289 290 284 285 284 286 285 283 282 284 286 283 284 282 280 280 279 279 279 280 281 280 280 280 281 281 281 281 282 282 281 281 282 282 280 279 278 278 280 281 282 283 283 281 281 281 280 280 280 280 279 280 279 279 278 277 277 276 276 275 275 274 274 273 273 270 269 269 267 267 268 267
284 285 284 284 284 285 285 285 284 282 283 287 282 282 283 286 282 283 284 283 283 283 283 284 284 285 283 281 281 278 280 280 279 278 278 279 279 278 278 278 277 277 277 278 277 278 278 278 277 278 277 275 276 278 280 281 282 281 281 278 279 279 279 278 278 278 278 278 277 277 276 275 275 274 274 273 274 274 273 271 269 270 268 267 267 267
284 281 283 282 283 286 282 286 283 284 284 285 285 281 280 280 282 282 281 282 283 282 282 280 284 285 285 282 284 282 279 279 279 278 279 279 279 278 279 279 278 278 279 279 277 276 277 277 277 276 276 276 274 276 277 278 278 278 277 277 278 278 278 278 278 278 277 277 276 275 275 275 274 273 272 271 271 271 271 271 269 269 268 267 267 267
282 282 282 280 282 285 285 283 280 280 278 280 280 281 282 281 279 280 280 280 281 281 279 279 283 283 282 282 281 280 278 278 279 278 278 278 278 278 278 278 277 276 274 275 275 275 276 277 276 275 275 276 275 274 275 276 276 274 276 275 276 276 276 277 277 277 276 275 275 274 273 274 270 271 271 270 270 270 269 269 269 269 269 267 268 267
283 285 278 282 283 280 281 280 278 281 283 281 279 279 280 280 279 278 279 280 281 280 280 279 279 282 283 283 279 279 278 278 278 278 278 277 276 276 277 277 276 276 275 276 273 274 277 276 275 275 276 276 274 274 274 273 272 272 274 275 274 275 276 276 274 275 273 273 272 272 271 272 271 271 271 269 269 270 271 270 269 270 270 270 270 270
282 282 279 281 277 279 284 285 280 281 280 284 283 284 282 280 278 279 279 280 281 280 280 280 279 279 280 280 280 280 281 279 277 277 278 278 277 276 276 275 274 274 273 273 273 272 273 273 274 274 274 274 272 272 272 271 270 269 271 272 272 274 275 273 273 271 271 271 271 270 269 269 269 269 269 268 268 268 267 268 272 271 270 270 272 274
285 284 283 280 282 282 286 281 285 286 284 286 288 286 284 281 280 280 281 281 281 281 282 282 281 279 279 278 278 280 281 280 278 278 277 277 277 277 277 276 276 275 274 273 274 272 272 272 272 272 272 272 271 272 271 270 268 268 267 269 270 273 273 273 272 271 269 268 270 269 269 269 268 267 268 267 267 266 267 265 267 275 276 275 273 274
Wind_Speed
1 4 5 7 10 11 7 10 11 4 5 4 3 2 4 4 6 4 4 5 1 0 8 9 9 10 11 11 12 5 4 6 8 9 10 10 9 11 11 12 12 11 11 5 6 6 7 7 6 5 4 4 4 4 5 7 6 7 8 8 8 7 6 6 6 4 8 8 7 6 8 8 4 4 5 7 5 6 5 7 6 6 6 7 7 7
4 3 7 10 13 9 9 7 2 4 1 1 1 2 5 3 8 5 2 1 1 4 4 4 6 11 13 13 13 1 5 11 13 13 13 13 13 12 13 14 13 10 2 6 6 6 4 5 6 6 5 5 8 5 6 8 8 7 8 8 8 7 7 6 4 5 5 3 3 7 7 8 5 4 4 6 5 5 6 6 7 6 6 7 6 6
2 9 10 15 1 4 2 5 4 5 3 1 3 2 2 8 5 9 6 2 1 3 9 4 6 10 12 13 11 7 11 10 11 15 16 16 15 14 12 13 9 6 9 8 8 6 7 7 8 7 6 6 6 7 6 7 8 8 7 7 8 7 6 5 5 4 5 6 7 6 6 6 7 6 5 5 5 5 6 6 7 7 6 6 6 6
2 5 18 3 5 4 1 3 4 1 0 4 1 1 9 3 1 7 1 2 1 4 3 1 4 9 10 10 13 13 11 11 10 12 16 13 14 15 16 15 14 14 11 13 13 12 8 8 8 7 7 7 6 6 6 7 8 7 7 7 7 6 5 6 6 7 7 9 10 10 8 7 7 8 5 8 7 7 9 9 8 8 7 7 7 6
12 3 1 8 6 7 5 3 5 4 6 4 6 5 4 4 7 8 5 2 1 2 1 5 8 9 10 14 11 9 5 7 11 7 11 13 12 10 5 7 13 16 15 13 11 9 10 10 11 11 8 7 8 8 8 7 8 6 8 7 7 7 7 6 9 9 10 11 11 10 10 10 11 8 7 8 8 6 6 7 7 6 6 6 7 6
9 6 3 6 5 5 4 3 7 8 7 3 6 11 10 7 7 5 4 4 5 4 2 1 6 6 6 9 13 4 2 5 8 9 16 15 11 9 12 15 9 8 9 14 16 15 13 11 9 10 10 10 9 9 8 7 7 7 7 7 7 7 6 8 10 11 9 9 14 12 10 9 7 8 6 7 9 7 6 6 3 6 6 5 6 6
6 1 5 6 6 5 5 5 4 8 8 1 7 10 12 9 6 3 2 2 3 4 2 1 5 10 1 9 7 4 4 11 8 6 14 11 12 11 15 12 9 10 8 6 7 9 11 11 11 12 12 11 10 9 7 6 6 8 8 8 8 8 7 7 9 9 8 8 6 11 12 13 12 12 3 3 4 6 5 5 7 6 6 5 7 6
2 3 4 3 5 6 5 6 5 12 6 5 2 4 5 5 6 7 5 7 6 1 4 1 2 8 12 11 4 7 8 11 10 12 13 14 13 12 12 9 8 10 11 13 14 14 13 13 16 17 14 12 11 9 8 7 7 10 9 9 8 8 8 8 9 8 7 9 8 7 8 8 8 11 11 6 6 4 6 7 7 6 6 6 5 6
6 5 5 4 3 4 9 6 4 9 8 4 0 6 5 7 6 3 3 3 1 3 9 2 1 5 7 6 3 1 5 6 13 14 15 16 12 11 10 9 10 11 13 14 14 16 16 16 14 12 13 11 9 9 10 8 8 8 9 8 8 9 9 8 9 8 6 5 7 10 10 9 5 8 10 7 5 7 5 9 6 7 6 6 5 6
2 6 10 10 8 8 5 3 8 12 5 2 5 7 7 7 6 3 3 2 2 0 7 4 2 4 18 5 2 3 2 7 10 14 16 16 9 7 9 10 8 7 8 11 12 12 11 10 10 10 9 10 9 8 7 7 8 8 8 10 10 10 8 8 8 6 6 7 8 9 11 15 10 7 8 7 8 7 5 9 7 6 6 6 6 6
1 3 4 5 7 4 4 1 4 7 3 6 4 7 5 8 4 3 6 2 2 6 9 7 7 8 13 3 8 8 8 10 11 9 9 8 4 4 7 8 9 10 9 9 9 8 9 8 9 10 12 11 8 7 8 9 9 8 10 11 11 11 9 9 8 8 9 8 7 9 13 16 15 11 12 10 8 7 7 9 7 6 6 5 6 6
0 1 1 1 4 3 4 4 4 1 4 6 2 3 4 2 6 3 4 4 1 10 3 7 11 10 13 3 4 7 3 3 7 8 10 9 5 5 5 6 8 8 8 8 9 9 9 9 8 9 12 11 10 9 9 9 9 10 9 10 11 10 10 9 8 8 9 8 7 7 12 15 16 15 11 13 13 11 11 10 9 6 7 6 6 5
6 6 2 3 4 9 3 6 3 3 1 3 5 7 5 4 5 3 3 3 6 9 0 3 2 3 18 14 4 6 10 7 8 10 10 8 7 6 5 7 6 6 7 10 10 10 11 13 14 13 12 12 12 12 11 11 10 10 10 12 13 11 10 10 9 10 10 9 9 10 9 12 12 12 12 12 12 10 11 10 10 9 9 7 7 5
7 1 1 2 2 5 8 8 3 1 5 5 8 7 6 1 1 6 5 2 7 7 3 2 1 9 2 7 12 16 15 13 8 10 10 8 8 7 6 5 6 7 9 9 10 10 11 13 13 13 13 13 12 12 12 11 11 10 10 11 13 12 10 10 9 10 10 8 9 9 10 10 11 11 11 10 11 10 9 9 10 10 10 9 9 8
5 6 7 8 6 6 10 13 14 6 10 12 4 12 10 9 7 4 5 6 8 5 3 5 1 8 3 3 3 8 5 7 5 7 6 6 7 6 4 4 5 6 7 8 10 12 13 13 13 13 13 13 12 13 12 11 11 11 11 11 12 11 10 11 11 9 10 9 9 9 9 10 9 11 10 9 8 10 10 8 9 8 7 8 8 8
11 7 6 9 1 9 13 3 7 6 2 3 2 5 2 9 6 6 5 3 1 2 4 2 7 3 5 3 6 3 5 6 7 10 6 11 8 4 3 5 7 8 8 8 9 10 10 11 11 11 11 12 12 13 11 12 11 11 11 12 12 13 12 11 11 9 11 10 9 9 10 10 10 8 8 7 6 6 7 9 9 9 7 7 7 6
2 5 1 2 5 7 8 3 3 4 8 4 6 7 6 2 5 0 3 1 1 2 13 4 10 7 8 9 11 13 6 9 5 6 6 12 9 1 6 6 6 7 8 9 11 11 11 10 11 11 11 11 11 12 12 12 11 12 12 12 12 11 10 12 11 11 10 10 11 10 9 9 9 11 12 11 10 9 7 7 7 8 7 7 7 7
7 6 1 4 5 1 0 0 3 4 4 8 4 8 2 2 3 3 6 2 2 5 8 5 11 8 2 14 2 1 7 12 6 10 10 8 5 6 11 6 7 9 10 9 8 7 10 11 12 11 10 11 13 13 13 12 10 11 12 13 13 12 13 10 11 11 11 12 11 11 10 9 10 10 9 9 11 9 9 7 7 7 8 8 7 7
3 7 1 1 1 4 2 2 2 2 2 6 5 6 8 4 3 2 4 6 1 5 7 4 2 9 9 12 1 2 9 12 14 13 7 9 8 12 10 4 5 5 6 8 9 9 10 11 12 12 12 10 10 12 12 11 11 10 10 12 13 14 13 13 10 10 10 11 9 9 10 10 9 8 9 8 8 9 10 10 8 9 8 8 8 8
1 5 3 1 3 1 1 4 10 3 2 2 3 4 1 3 1 6 8 3 5 5 1 9 5 15 6 8 8 12 13 11 11 8 9 12 12 12 7 5 7 9 9 9 9 10 10 11 11 12 13 13 12 12 11 11 10 12 12 12 11 10 11 10 11 11 12 10 10 9 8 7 7 7 9 9 10 10 10 10 10 9 9 10 8 8
4 3 8 1 2 2 4 6 10 12 10 2 3 5 1 0 2 4 1 4 4 4 4 4 11 11 3 6 8 9 11 13 10 10 9 11 13 8 2 6 8 9 10 10 10 10 10 10 10 9 9 9 8 9 11 12 12 12 11 12 12 14 12 12 11 11 11 11 9 10 11 10 9 9 8 9 8 9 9 8 8 9 8 8 8 9
3 3 9 2 0 7 5 3 5 8 13 14 15 13 15 10 5 4 8 2 2 3 7 4 14 13 4 2 8 7 3 5 8 9 11 9 6 4 3 5 8 8 8 8 9 9 9 9 9 8 7 6 8 10 12 11 11 12 13 13 12 12 12 13 11 11 11 10 10 11 11 10 8 8 8 9 8 8 8 8 8 8 8 9 8 8
6 3 4 6 7 9 5 0 2 3 0 2 3 7 8 9 6 6 8 7 0 5 4 3 2 18 4 4 4 5 6 4 3 5 9 7 6 4 4 5 6 7 8 8 8 8 9 9 10 11 12 13 13 12 12 11 13 13 13 13 13 13 13 12 12 10 11 11 11 11 9 10 10 9 10 10 8 8 8 7 6 6 8 7 7 4
5 3 4 3 1 2 3 4 1 2 2 2 1 2 6 10 10 10 7 5 9 3 6 3 1 18 2 0 1 2 5 2 4 4 8 6 5 4 4 4 6 5 5 5 6 6 7 8 9 10 12 12 12 12 13 12 11 11 12 13 12 14 14 12 11 11 11 10 11 11 10 11 10 11 10 10 8 9 7 6 6 6 6 6 6 7
6 4 8 3 1 1 3 2 2 2 1 3 4 6 10 9 8 1 4 2 4 11 11 10 12 17 0 3 2 2 2 2 4 4 5 6 6 4 4 4 4 5 6 7 9 9 9 10 12 13 13 13 13 11 12 12 12 12 12 12 13 13 13 12 11 11 11 12 13 11 12 11 11 12 12 11 9 9 8 7 7 6 7 8 8 7
4 6 8 10 13 12 9 10 14 12 12 4 2 5 6 11 13 5 9 6 8 11 11 10 15 11 1 2 2 1 1 4 3 4 5 6 6 4 3 4 5 7 8 8 8 9 14 14 12 12 13 12 13 13 12 12 12 11 12 13 11 13 12 12 10 11 11 11 13 12 13 12 12 13 13 12 10 11 9 8 7 7 7 8 10 8
5 4 11 14 15 16 15 2 2 10 6 7 12 14 13 12 13 13 8 7 15 6 7 17 21 15 8 1 3 5 2 4 3 2 6 5 5 4 4 5 6 8 10 11 12 11 8 10 16 14 13 13 13 13 13 13 12 12 12 12 11 11 13 11 10 11 11 11 12 12 13 13 13 12 12 11 11 10 9 9 8 7 8 7 8 9
3 4 11 16 18 17 13 3 6 15 13 16 12 11 15 13 14 15 14 18 7 7 14 20 11 12 26 14 8 4 4 4 7 9 8 6 6 6 7 5 5 5 6 6 8 12 16 15 12 14 15 13 13 12 12 12 13 12 12 13 11 11 11 10 12 11 12 12 12 12 13 12 10 11 10 9 9 10 9 9 8 8 7 7 8 9
5 8 9 10 15 17 14 6 8 6 10 12 15 15 16 17 14 18 22 19 10 15 20 18 11 17 24 17 9 9 5 7 12 15 10 7 5 3 4 5 6 8 7 10 14 14 13 14 14 13 12 13 12 14 14 12 12 10 10 10 11 11 12 11 12 12 11 11 12 12 10 9 8 8 8 9 9 10 10 10 9 8 8 7 7 7
3 7 6 8 14 14 15 6 5 9 4 3 10 15 17 19 22 24 23 21 17 17 19 20 5 12 18 16 2 6 8 14 11 1 1 3 6 6 5 6 8 9 11 14 14 14 13 13 11 13 13 12 15 14 14 14 14 14 14 13 12 13 12 12 13 13 12 13 12 9 8 8 7 8 9 10 11 10 10 10 10 9 9 9 7 7
4 5 4 5 7 13 15 4 5 9 6 7 8 9 14 18 22 24 21 17 14 15 18 17 15 18 22 1 7 7 7 2 4 6 7 8 6 7 8 8 9 10 12 12 10 12 12 11 11 11 13 15 15 15 15 14 13 13 13 12 13 14 13 13 13 13 13 13 10 9 8 8 9 9 10 10 10 8 10 10 8 8 7 6 6 7
4 4 2 3 8 12 10 9 10 5 5 6 7 11 17 18 14 11 12 15 13 18 20 15 17 22 15 7 7 2 3 6 10 11 11 10 9 6 7 10 10 11 12 13 13 11 12 13 13 14 15 15 14 14 13 13 12 11 13 12 13 12 11 12 13 14 13 11 10 11 12 11 11 10 10 10 9 9 8 7 7 7 7 7 7 6
6 5 4 5 10 13 8 10 9 6 2 8 13 22 23 11 9 9 13 13 18 18 13 15 22 21 20 8 6 6 5 9 11 11 13 10 6 9 10 11 12 12 12 13 13 14 15 16 16 17 16 15 16 16 15 11 10 12 11 11 10 9 11 12 12 11 11 11 11 11 11 11 11 11 10 9 8 8 8 8 8 7 7 8 7 6
4 7 7 5 7 7 3 7 6 5 12 13 13 9 14 16 15 15 17 19 17 13 15 18 19 18 14 11 10 15 11 13 14 13 9 10 8 8 10 10 11 11 9 8 10 13 13 11 11 13 14 13 12 11 10 11 12 10 8 8 8 11 10 11 11 12 12 11 11 11 11 11 10 9 9 8 8 8 9 9 10 8 6 6 6 7
6 7 6 4 4 5 6 7 6 14 15 7 2 2 5 18 19 21 21 16 15 16 16 18 19 20 20 15 15 15 14 12 6 8 7 5 5 7 11 13 13 12 11 10 10 10 11 12 10 8 8 10 11 11 11 10 10 9 9 9 10 10 10 11 11 11 10 11 11 11 10 11 11 11 9 9 9 9 9 10 8 8 8 8 9 9
9 9 4 3 3 2 4 7 6 7 3 4 4 1 1 2 8 12 15 18 19 20 20 22 26 24 21 19 16 13 11 8 5 6 6 6 8 11 10 11 10 8 8 8 9 8 8 9 12 14 14 10 11 12 12 13 12 12 12 11 11 10 10 10 10 9 9 10 9 10 11 11 10 10 10 10 10 10 10 10 11 11 8 7 7 5
13 9 7 5 6 6 5 9 11 4 8 5 5 4 7 9 8 13 11 16 19 19 19 19 21 20 18 19 18 13 1 3 8 13 5 10 11 8 9 7 5 7 9 7 8 10 8 7 8 8 8 11 12 13 13 12 12 12 11 12 11 12 11 12 12 11 12 12 12 12 11 11 11 11 11 10 10 11 11 11 10 9 7 9 8 9
11 13 7 11 6 9 8 7 3 3 13 15 11 1 7 7 14 13 11 11 9 13 17 17 17 19 20 20 17 1 3 4 13 18 7 9 5 5 5 5 4 5 5 5 3 3 5 5 5 6 10 11 12 12 11 11 12 12 12 12 12 13 13 13 14 13 13 14 12 12 11 12 11 11 11 11 13 13 12 10 8 9 9 11 11 11
4 4 9 13 5 7 8 9 8 9 11 9 3 6 6 3 8 6 4 12 9 7 12 15 18 22 19 16 9 7 2 8 14 16 1 6 6 6 6 3 1 3 5 7 8 7 7 7 9 8 8 10 12 11 12 13 14 13 13 12 12 12 13 14 13 14 15 13 11 11 11 10 11 12 13 13 13 12 13 12 12 9 8 9 9 10
11 8 5 10 9 9 10 10 10 5 7 4 4 2 5 5 9 9 3 10 7 9 12 14 19 19 17 7 6 7 9 9 16 10 5 7 5 4 5 5 3 3 3 4 4 6 8 8 9 8 11 13 12 11 13 12 12 12 12 12 11 12 13 15 16 12 8 9 11 10 11 11 13 13 14 14 12 10 10 8 7 9 11 9 8 8
6 3 9 15 12 13 15 8 3 5 3 3 6 3 5 4 8 8 14 12 4 7 5 11 13 13 4 6 9 8 13 11 4 2 1 4 6 3 2 2 2 3 6 5 5 6 7 8 11 12 12 9 10 11 11 12 12 12 11 11 11 14 16 11 7 8 10 9 10 11 13 12 13 14 13 12 12 11 9 8 9 8 8 9 7 6
1 3 1 5 11 12 11 12 10 5 4 5 0 12 8 8 6 15 7 1 8 6 5 6 9 6 6 9 9 11 4 1 1 0 4 3 4 4 3 4 4 5 4 3 5 6 6 6 6 6 6 7 11 12 11 12 13 12 11 11 15 15 5 7 9 9 9 11 11 11 12 12 10 11 10 8 8 9 8 6 6 7 7 6 6 7
11 10 10 11 6 4 3 9 6 10 4 10 14 2 3 4 6 4 2 1 1 4 7 6 6 6 7 6 4 4 2 1 1 2 3 4 4 3 3 3 4 5 5 4 4 3 6 6 6 6 7 7 8 9 9 11 11 10 10 13 12 6 8 8 9 10 10 10 10 10 11 10 11 10 8 9 10 11 10 8 8 7 7 7 7 8
5 4 1 4 5 7 10 10 9 6 5 13 17 10 9 13 3 5 7 4 2 4 6 4 5 6 6 7 7 4 2 3 3 3 3 3 4 3 3 3 4 4 4 4 3 4 5 6 5 6 4 5 7 8 9 11 11 9 10 11 5 7 6 7 7 8 9 8 9 8 8 9 9 9 8 9 9 9 9 8 8 7 8 8 8 8
9 11 8 9 8 10 8 8 1 3 12 15 8 4 6 7 1 5 1 4 8 6 4 4 6 5 6 8 7 7 3 3 3 4 5 4 4 4 4 3 3 4 4 5 4 4 4 7 8 7 5 4 5 6 7 7 10 9 10 5 7 7 8 8 8 8 8 8 8 9 8 8 8 9 8 8 10 10 9 8 8 8 6 8 8 8
3 2 0 3 4 2 1 2 1 0 3 10 1 1 2 5 2 3 5 4 4 4 8 6 6 7 6 7 10 3 4 6 6 3 3 4 4 3 3 4 4 4 4 5 4 5 6 7 6 7 7 4 4 6 6 7 9 12 8 5 6 7 8 8 9 9 9 8 8 8 8 9 7 7 7 8 8 10 9 11 10 10 9 8 9 9
4 1 1 3 2 7 7 7 8 6 4 6 6 1 1 0 3 3 3 3 4 6 5 1 7 9 9 7 7 8 6 6 6 4 5 5 5 5 6 6 4 5 6 7 5 8 8 8 8 7 7 7 4 5 5 5 4 5 6 7 7 8 9 9 10 9 8 8 8 7 8 9 8 7 7 7 7 7 7 8 8 8 9 9 9 9
4 5 4 2 2 9 6 2 2 2 3 3 4 3 4 3 0 1 1 1 2 3 3 4 5 6 5 6 5 8 7 6 7 7 6 6 7 6 6 7 7 5 3 4 5 5 6 7 9 8 7 8 6 5 5 5 5 6 7 6 7 8 9 9 9 9 9 9 7 7 8 8 9 10 8 8 9 9 7 7 9 10 12 12 13 12
4 6 5 7 8 3 4 3 2 3 0 3 4 4 4 4 5 2 3 5 5 6 6 4 1 6 8 7 6 7 8 6 5 6 7 5 4 4 5 6 5 5 6 6 3 4 7 7 8 7 7 7 5 5 5 5 5 5 7 7 7 8 9 8 6 6 6 6 6 7 7 7 8 9 9 8 8 8 10 12 12 12 11 10 10 12
5 7 3 5 1 3 12 11 9 4 4 6 7 11 7 3 4 3 3 4 4 7 7 8 4 2 2 5 8 9 9 8 5 5 6 6 6 5 5 5 4 4 4 3 3 4 4 4 6 6 5 5 4 5 5 5 4 3 3 5 6 7 8 7 7 6 6 7 7 7 7 7 7 7 8 8 9 8 7 6 8 9 9 9 10 15
11 9 8 7 9 12 9 2 11 8 3 5 12 10 9 8 7 7 7 8 5 3 6 10 8 3 3 2 2 6 7 9 8 4 4 4 5 5 6 7 7 5 4 4 5 3 4 4 4 4 5 4 4 4 4 4 4 4 3 4 5 6 8 8 8 6 6 7 8 9 9 8 8 7 7 7 7 7 8 7 6 12 16 12 9 13
Wind_Direction
102 133 166 192 219 214 206 192 203 187 138 106 102 121 214 219 275 277 268 260 258 58 231 223 231 242 257 255 263 201 188 232 247 244 239 235 226 224 226 221 220 217 219 174 189 188 191 194 192 196 186 174 166 172 158 146 147 148 145 139 135 135 130 129 136 132 127 129 114 79 91 96 42 54 65 65 45 51 52 62 65 69 77 82 87 86
63 137 235 221 222 205 203 202 134 91 105 162 122 175 274 164 251 233 243 358 327 172 292 247 239 250 250 258 260 188 174 226 223 233 239 236 228 227 223 224 218 214 107 160 194 199 193 193 192 189 188 171 166 177 166 159 159 155 152 145 141 143 145 143 137 126 100 81 97 123 121 114 94 75 54 73 46 56 59 56 62 67 68 75 79 84
162 199 227 229 158 101 99 164 189 186 187 93 194 230 286 264 252 276 260 261 267 138 255 257 236 252 254 254 263 225 214 231 219 217 226 223 227 228 224 225 214 182 198 185 194 184 189 191 189 187 188 184 178 171 173 163 156 158 156 150 147 151 147 134 117 104 103 97 92 103 108 109 104 58 59 69 66 47 58 48 34 47 59 73 71 70
240 282 242 205 124 113 69 107 137 122 76 189 150 154 233 232 78 294 307 7 221 175 265 39 307 278 276 258 250 248 220 238 232 224 237 227 227 225 220 212 204 205 190 193 189 189 184 186 186 186 189 182 171 172 172 169 165 162 160 155 148 135 124 117 102 101 94 95 93 84 88 80 82 111 91 78 66 70 66 50 29 40 36 59 69 62
201 213 298 150 157 163 182 136 125 149 232 240 199 208 234 211 230 194 250 313 311 316 49 306 288 277 247 265 265 254 249 250 257 240 250 247 238 242 249 226 212 206 194 188 184 182 182 187 190 187 184 174 178 179 176 173 169 164 162 153 135 130 128 119 120 116 120 113 98 96 88 91 94 76 85 90 70 61 76 77 54 47 46 58 68 67
274 260 80 112 164 183 140 135 193 157 231 287 228 202 217 215 230 264 318 359 3 328 339 73 318 272 261 246 252 281 351 245 251 230 245 241 235 230 232 229 210 213 190 188 187 185 184 184 178 183 187 185 181 181 178 172 165 151 149 140 128 118 122 130 130 136 140 139 135 131 126 118 112 110 115 118 128 118 90 88 85 60 50 62 73 71
217 186 142 164 154 170 181 191 225 162 201 198 270 197 215 216 215 225 238 93 284 244 289 25 220 282 265 273 247 248 235 253 263 231 253 251 240 224 229 227 202 196 181 181 181 180 180 188 181 184 190 186 181 180 162 160 153 147 143 142 138 137 134 130 136 143 141 138 143 140 142 141 142 128 70 60 58 103 96 89 82 77 59 54 78 70
119 210 127 90 120 151 174 213 240 175 151 232 251 167 192 194 201 224 190 189 237 263 299 35 135 266 291 269 229 210 204 238 264 266 258 251 241 230 230 221 204 191 186 183 188 189 189 184 184 185 187 183 182 163 155 155 153 149 146 141 140 137 142 147 150 154 157 147 146 125 115 119 130 133 133 126 109 91 108 97 89 85 71 62 67 88
153 182 180 163 154 156 195 205 178 154 152 217 247 147 166 185 201 156 155 193 232 22 284 311 341 305 236 267 338 106 216 263 257 255 255 252 239 229 230 221 209 196 191 184 185 189 188 188 187 181 182 181 165 163 165 160 156 146 140 137 135 139 143 154 159 158 160 154 149 138 128 108 77 111 119 119 113 113 116 102 93 90 88 81 71 71
294 172 202 175 158 207 216 224 154 161 199 255 121 85 80 76 67 112 97 117 318 6 252 211 171 237 275 205 154 348 205 235 241 246 249 251 250 221 222 222 208 195 191 194 193 185 185 183 183 182 173 169 168 161 149 145 146 147 144 144 146 148 150 160 158 155 143 145 146 138 134 125 126 121 116 122 127 124 127 108 108 105 99 95 84 71
253 292 166 131 200 198 124 34 176 182 155 127 89 74 25 42 36 27 66 83 24 259 246 212 207 179 283 177 182 154 208 197 229 258 269 273 266 245 225 211 199 194 188 186 181 180 180 179 176 171 176 172 153 154 153 150 153 154 152 152 156 157 155 161 161 155 152 152 156 145 142 136 138 145 140 135 134 135 128 121 122 117 108 96 94 91
339 21 147 247 97 98 101 80 26 85 142 135 105 123 61 342 12 33 342 40 182 264 216 208 202 177 233 282 264 231 266 238 211 233 255 272 271 259 231 219 203 190 182 172 171 172 166 162 178 178 175 169 163 156 159 159 156 160 158 155 152 157 162 161 160 153 151 151 150 151 148 143 146 150 154 149 149 152 142 138 132 127 112 102 99 99
259 221 243 335 213 132 123 86 7 42 92 89 93 89 128 249 33 290 26 256 200 246 288 22 123 348 241 244 235 269 254 253 222 223 241 259 270 250 234 218 201 182 170 175 177 171 174 177 176 182 176 167 171 173 166 166 163 161 160 160 155 164 165 161 161 157 154 151 153 153 152 144 146 149 153 150 148 155 147 145 138 140 132 133 121 123
271 301 259 245 61 237 144 156 182 62 215 142 158 152 134 215 219 255 271 266 305 294 282 11 80 253 314 286 209 233 237 233 227 231 242 245 254 250 233 210 189 185 182 181 177 179 181 180 182 181 175 174 174 172 170 167 166 165 164 164 161 165 165 159 158 155 152 154 152 152 152 152 150 152 155 156 152 156 149 148 146 148 147 146 144 144
241 302 245 138 242 179 182 201 184 162 161 200 127 165 184 156 163 209 200 224 234 231 286 279 114 235 114 246 284 257 284 289 258 252 253 257 248 253 252 197 179 180 188 178 182 185 184 184 181 180 178 176 175 172 170 170 169 166 166 165 164 160 165 159 158 155 154 150 152 152 153 155 155 153 155 156 157 154 150 152 145 143 144 140 147 144
209 234 265 203 299 156 188 215 111 93 81 223 169 67 103 219 133 232 207 177 268 333 334 211 213 196 184 270 292 246 287 293 266 260 258 269 250 239 225 188 192 193 185 185 187 187 189 184 181 181 180 176 173 173 172 172 169 169 168 167 167 165 164 162 157 162 156 155 153 155 158 164 157 151 146 144 147 150 149 150 147 145 143 139 136 135
58 278 284 329 48 175 189 124 184 142 203 210 113 206 210 177 144 207 31 38 93 39 255 129 276 265 299 271 236 243 247 257 267 280 274 257 265 248 243 213 199 191 187 189 193 190 184 180 187 185 179 175 174 174 177 175 173 171 166 166 164 165 164 163 165 160 159 154 155 162 163 162 162 160 161 160 157 153 148 142 141 139 139 135 141 141
155 236 297 113 219 299 240 159 101 23 138 98 186 227 139 105 93 150 227 351 64 212 270 137 245 286 56 283 3 54 224 250 261 256 242 261 300 266 248 214 191 191 197 196 193 187 185 184 181 182 183 181 178 175 173 175 172 172 169 166 165 165 167 171 164 162 160 160 161 162 169 170 168 162 157 154 153 150 143 139 132 131 140 154 155 147
140 272 290 303 147 308 350 115 34 354 16 142 196 188 128 235 251 289 92 255 201 260 276 284 261 261 190 248 87 213 203 233 240 243 254 268 255 245 248 196 194 190 187 187 188 184 185 185 186 183 182 181 179 176 174 170 169 168 170 169 170 169 170 168 168 162 161 164 163 168 171 169 164 162 154 151 149 148 147 148 151 154 151 145 152 147
79 186 295 326 136 311 24 125 203 184 10 52 77 140 45 103 168 138 200 178 127 258 44 286 57 275 156 227 189 226 205 216 224 235 241 242 248 244 236 183 187 195 196 191 191 191 188 187 185 183 180 179 177 174 173 172 171 172 170 167 170 168 165 166 166 166 165 168 163 165 160 165 163 156 156 157 155 156 156 156 157 154 158 162 154 151
223 157 251 297 314 98 189 195 206 162 172 155 133 195 179 2 249 113 10 148 170 179 181 278 301 261 239 201 180 209 205 212 205 218 229 241 244 258 214 185 196 200 196 195 190 187 185 185 182 184 183 177 171 173 172 175 178 174 169 172 172 171 171 171 171 169 171 162 167 163 167 166 163 160 156 156 161 154 157 157 158 164 161 149 159 152
190 166 211 123 252 217 246 252 197 191 190 180 181 196 184 143 162 162 246 58 122 127 242 168 256 275 255 171 201 201 218 238 198 204 226 241 264 296 215 202 199 200 204 194 189 181 181 177 177 177 173 172 174 180 180 177 173 177 179 177 171 171 174 173 174 174 166 166 163 172 167 167 162 156 155 159 158 157 159 162 165 164 158 162 159 156
161 150 104 200 210 198 213 241 237 220 41 200 177 230 183 188 163 175 207 224 87 239 105 189 82 271 145 196 182 253 160 239 241 186 243 250 255 259 228 213 208 198 189 192 186 183 181 179 179 181 181 181 184 183 180 179 184 183 180 174 176 174 180 176 173 172 167 166 167 171 169 163 162 159 161 159 159 161 163 163 163 164 162 154 150 142
109 137 183 264 337 317 319 300 355 139 146 310 279 137 146 193 194 200 201 175 183 180 214 227 158 263 353 322 265 250 287 231 265 206 242 265 270 256 219 197 200 190 190 183 176 174 179 176 174 177 187 185 187 187 187 186 184 183 183 180 174 179 174 173 174 170 167 166 168 168 166 170 162 161 163 163 162 163 163 160 163 164 150 143 137 139
147 243 184 174 2 352 349 339 300 333 60 206 175 201 197 199 197 172 84 81 210 205 197 179 232 254 260 313 255 301 334 284 267 253 214 253 263 244 226 203 197 186 179 183 180 178 173 178 185 191 188 189 190 188 187 189 188 185 186 180 179 178 174 172 171 171 171 168 168 170 172 171 168 167 167 164 160 163 159 162 164 162 153 148 148 145
169 161 158 195 208 212 213 199 210 202 199 194 240 193 201 179 193 161 222 201 228 233 166 210 239 234 336 303 286 304 337 305 263 251 277 225 256 255 216 195 190 184 189 189 182 179 191 191 190 194 193 190 191 188 186 190 190 189 188 186 179 173 172 175 171 173 170 172 170 173 177 175 172 174 170 165 163 163 162 163 168 162 158 159 151 148
181 189 187 198 211 220 225 226 44 103 92 185 213 186 202 203 196 202 211 206 221 221 165 225 230 256 263 162 234 248 284 240 285 306 257 257 256 247 220 199 195 192 190 191 190 194 190 195 200 198 194 194 190 188 188 188 189 190 188 183 181 178 170 170 170 171 173 176 176 176 182 179 179 173 170 168 163 158 160 166 167 163 162 164 160 157
102 190 208 211 219 228 233 162 200 146 174 206 193 200 206 192 194 196 203 224 175 92 242 239 218 250 257 232 225 237 257 282 263 263 264 256 255 232 215 204 194 197 198 190 196 194 200 202 195 198 198 192 194 189 188 191 190 187 187 183 178 174 171 168 170 174 178 178 181 183 185 183 175 171 168 160 156 160 161 161 162 163 163 164 165 165
159 202 212 201 229 235 236 146 183 178 182 190 195 198 198 200 196 202 217 221 140 212 229 246 147 225 253 251 227 235 192 238 248 247 246 248 255 196 168 182 196 203 197 198 207 204 200 200 202 196 195 197 189 192 191 186 187 185 185 182 178 173 175 167 169 175 177 179 185 189 183 173 170 164 158 156 157 164 166 166 164 161 162 170 171 168
156 235 205 187 221 237 243 183 170 183 204 201 206 204 201 197 202 207 217 215 204 225 238 253 216 237 255 261 191 222 197 222 246 305 142 196 224 208 191 208 211 208 203 210 209 204 204 206 197 196 193 195 197 195 191 189 188 187 184 181 178 177 173 165 176 174 177 184 187 178 171 170 168 165 160 162 169 172 169 167 167 166 168 173 170 160
152 240 132 145 211 239 243 183 172 196 184 211 223 217 217 213 211 209 214 220 221 246 256 261 272 272 261 277 251 218 215 284 329 262 237 230 225 206 209 217 222 217 218 220 209 204 205 200 198 193 194 198 198 197 197 197 191 185 182 179 180 181 174 169 171 178 181 184 176 164 159 166 174 169 172 174 170 171 172 169 166 166 167 163 159 155
145 244 50 120 208 246 238 161 211 169 193 222 226 225 225 215 214 211 217 219 202 220 232 247 256 252 255 117 270 284 184 211 236 247 249 241 221 210 213 226 226 227 222 218 209 199 198 199 196 195 198 197 197 195 196 196 191 185 188 183 183 177 167 173 177 180 180 175 167 166 170 175 174 175 178 172 176 171 169 164 163 167 165 160 156 156
183 149 162 178 213 231 244 153 196 170 163 248 245 232 222 205 205 208 224 217 214 212 218 225 237 243 256 247 255 257 194 232 229 233 244 252 228 209 219 226 230 232 226 215 205 201 202 200 199 197 196 194 195 195 194 180 175 190 187 182 176 160 171 179 178 175 176 176 174 173 173 172 172 176 177 177 169 165 164 166 166 165 167 173 165 151
151 176 202 168 214 231 200 156 141 152 220 226 238 240 212 208 189 204 216 217 218 197 218 224 237 251 255 257 245 255 240 233 234 239 225 230 228 225 233 238 240 236 232 222 210 207 207 199 200 201 198 194 191 187 176 177 180 179 171 166 159 169 175 175 180 180 179 173 174 172 174 174 171 174 174 168 168 168 170 168 177 173 166 156 156 169
174 188 199 167 169 200 138 128 162 213 224 236 5 315 195 199 204 212 226 222 221 219 234 247 252 253 251 245 244 248 254 258 254 256 256 239 223 222 223 229 231 230 222 215 211 208 203 199 192 183 181 186 178 172 168 177 170 154 154 159 166 172 172 183 180 182 177 176 175 173 173 172 173 174 167 170 174 175 177 177 171 170 172 171 176 176
185 189 158 202 156 74 150 171 222 214 253 317 267 86 276 91 197 198 234 236 227 223 219 232 240 244 250 253 253 249 256 276 309 260 236 233 210 217 223 230 234 225 225 215 207 202 191 190 188 187 189 172 163 172 175 175 164 160 165 160 166 168 175 177 181 179 174 178 176 174 176 176 174 170 170 173 176 180 182 180 181 177 171 169 179 186
184 187 184 227 174 218 173 203 233 8 327 274 265 229 160 166 154 170 214 240 229 222 219 227 239 246 251 255 252 256 12 355 300 279 202 217 221 221 215 230 210 212 214 213 195 203 193 188 187 181 160 165 172 171 179 170 163 159 155 161 167 168 174 176 183 184 183 185 183 182 176 174 172 175 173 173 177 186 186 185 184 180 171 176 182 183
181 191 185 212 211 198 206 236 254 242 248 250 230 179 179 171 173 183 183 260 246 213 213 210 227 238 242 245 252 254 80 333 285 273 234 212 210 197 207 211 214 207 197 180 163 151 155 160 155 161 162 165 173 175 165 161 160 158 161 167 169 172 179 183 189 186 187 189 184 179 173 174 175 175 175 176 187 190 193 191 188 184 176 182 182 193
257 232 190 203 201 178 209 224 219 221 237 238 250 178 175 123 142 113 147 253 260 174 194 188 216 233 233 236 235 103 144 241 258 261 277 202 197 193 171 190 155 188 175 169 166 164 159 159 157 156 155 159 171 173 163 160 160 161 169 172 175 178 182 191 192 190 192 186 174 173 171 172 176 180 182 188 192 191 191 190 189 182 178 196 195 200
196 187 163 218 204 198 207 221 227 210 239 254 197 155 175 148 118 117 164 253 241 172 188 179 211 226 234 212 135 163 182 229 245 262 214 193 178 162 165 167 143 136 137 140 140 152 150 140 130 149 164 176 176 157 157 157 161 168 170 177 171 181 192 197 198 190 173 171 173 171 175 178 182 186 186 191 189 190 196 185 175 185 190 195 196 193
179 207 198 204 208 217 217 233 267 272 270 214 184 175 158 170 127 154 214 236 193 181 179 193 210 224 187 150 166 182 220 221 237 265 36 123 104 91 53 101 155 163 152 146 144 132 142 157 162 171 175 165 151 153 155 157 161 174 176 171 178 196 204 192 162 165 176 169 171 177 182 184 186 188 191 188 188 186 184 184 188 179 183 190 188 180
234 174 260 210 215 211 216 226 232 264 237 153 272 155 172 113 200 213 227 186 155 182 205 181 208 222 185 189 187 214 234 300 306 49 119 97 126 132 134 129 107 75 59 93 130 135 134 141 134 127 125 144 151 153 158 161 170 174 172 176 198 206 154 142 164 165 169 178 181 182 183 185 187 188 186 176 164 171 182 177 169 177 179 175 179 190
188 177 190 196 200 220 177 228 215 234 229 137 120 59 300 184 236 191 154 269 182 183 162 208 194 217 167 196 198 191 210 97 65 99 92 95 100 123 122 117 112 121 117 111 103 109 129 130 131 135 138 138 147 150 157 159 167 173 175 195 203 145 148 160 163 169 172 175 177 180 181 181 179 178 173 174 177 176 182 172 172 174 168 173 183 194
177 162 155 238 182 202 199 213 214 212 119 154 141 175 203 211 192 173 143 162 226 172 179 176 222 195 187 157 161 169 197 137 98 108 89 75 99 90 93 83 80 85 81 62 86 116 120 112 112 113 119 139 148 157 160 167 170 173 186 203 134 146 145 151 155 157 166 173 175 171 175 177 176 177 175 174 171 176 173 174 175 169 178 179 184 193
193 194 178 198 186 192 207 224 241 167 164 189 177 199 223 190 124 166 137 149 160 224 186 165 194 182 171 149 148 150 144 230 169 163 145 162 146 150 134 132 118 121 113 120 115 115 115 135 132 123 111 117 143 147 157 162 165 169 192 180 141 151 151 148 151 157 171 172 171 172 171 168 174 177 176 172 170 175 177 173 166 177 185 178 190 195
313 215 41 101 245 251 290 183 156 76 221 213 259 197 232 168 169 134 148 142 227 181 173 180 166 164 156 157 134 207 183 165 146 153 130 149 149 134 101 93 86 80 98 103 102 106 119 111 115 121 126 112 135 149 159 170 164 179 183 140 147 147 148 148 152 166 172 172 171 173 164 169 175 175 173 172 180 186 184 179 181 187 183 186 198 199
248 156 195 175 255 181 244 200 191 210 215 209 209 320 262 245 191 159 168 243 202 166 180 173 159 164 166 168 160 157 159 164 154 158 156 151 150 153 147 138 137 147 149 142 145 131 125 129 127 135 138 145 165 157 163 162 163 148 135 150 147 149 149 156 161 165 166 170 171 164 168 171 174 172 171 177 179 183 180 178 182 185 185 191 196 202
289 176 169 236 201 202 238 260 301 309 286 262 195 168 216 217 28 151 182 244 159 139 134 164 135 133 144 161 166 145 156 171 160 158 166 169 159 155 152 151 148 125 113 130 146 137 127 132 138 143 149 153 171 161 158 156 152 143 140 143 148 148 148 155 165 166 174 172 167 169 172 179 171 171 178 185 181 183 187 190 186 190 197 193 196 197
175 115 200 197 212 295 315 283 261 2 351 251 245 252 228 183 182 185 160 147 143 130 122 97 97 168 167 167 151 138 143 195 192 169 156 152 145 149 152 155 154 145 148 140 141 143 143 146 141 154 148 158 162 159 154 151 144 150 149 151 148 147 149 156 161 157 157 157 157 172 175 176 174 183 182 186 196 207 197 188 191 202 216 218 200 199
105 206 201 158 216 211 217 223 138 154 235 232 214 216 215 193 144 142 119 133 158 150 144 125 85 52 120 159 161 157 162 179 190 167 168 162 163 156 147 143 141 133 123 116 109 105 102 112 138 147 151 152 152 149 153 152 147 131 125 136 144 145 146 146 146 149 163 167 173 170 170 180 184 185 185 186 195 201 234 251 223 217 211 219 208 220
197 196 156 181 195 226 231 201 177 197 242 229 202 183 174 175 152 159 177 174 190 197 151 131 122 101 140 194 206 166 162 166 183 159 139 143 157 165 159 150 147 152 147 140 121 104 119 126 127 126 144 157 147 151 150 149 145 130 119 137 150 152 146 148 154 166 167 170 186 184 184 179 184 188 191 192 189 196 208 231 249 234 233 231 216 219